Regional Weather Roundup
Issued by NWS

Home | Current Version | Previous Version | Graphics & Text | Print | Product List | Glossary Off
Versions: 1 2 3 4 5 6 7 8 9 10 11 12 13 14 15 16 17 18 19 20 21 22 23 24 25 26 27 28 29 30 31 32 33 34 35 36 37 38 39 40 41 42 43 44 45 46 47 48 49 50

000
ASUS43 KDMX 311403
RWRIA

WEATHER ROUNDUP FOR IOWA
NATIONAL WEATHER SERVICE DES MOINES IA
900 AM CDT WED AUG 31 2016

NOTE: "FAIR" INDICATES FEW OR NO CLOUDS BELOW 12,000 FEET WITH NO
SIGNIFICANT WEATHER AND/OR OBSTRUCTIONS TO VISIBILITY.

* - THESE STATIONS ARE NOT NWS STATIONS...THUS NOT UNDER NWS
QUALITY CONTROL.  THEY ALSO DO NOT REPORT WEATHER SUCH
AS PRECIPITATION OR FOG.

IAZ001>003-012>014-020>022-031>034-043>046-311500-
   NORTHWEST IOWA

CITY           SKY/WX    TMP DP  RH WIND       PRES   REMARKS
CARROLL *        N/A     64  61  88 CALM      30.19S
CHEROKEE *       N/A     61  61 100 NE3       30.22S
DENISON *        N/A     61  61 100 CALM      30.19R
LE MARS *        N/A     63  61  94 CALM      30.23S
ORANGE CITY *    N/A     66  61  82 CALM      30.23S
SHELDON *        N/A     63  63 100 CALM      30.22S
SIOUX CITY       N/A     70  64  81 CALM      30.21S
SPENCER          N/A     63  60  90 N3        30.22S
STORM LAKE *     N/A     66  59  77 N5        30.22S
$$

IAZ055>058-069>071-079>083-090>094-311500-
   SOUTHWEST IOWA

CITY           SKY/WX    TMP DP  RH WIND       PRES   REMARKS
ATLANTIC *       N/A     66  63  88 NE7       30.18S
AUDUBON *        N/A     64  61  88 CALM      30.21R
CLARINDA *       N/A     68  64  88 MISG        N/A
COUNCIL BLFS *   N/A     68  63  83 NE7       30.19R
CRESTON *        N/A     66  63  88 NE8       30.19R
HARLAN  *        N/A     64  63  94 N6        30.23R
LAMONI           N/A     68  65  90 N8        30.15S
RED OAK *        N/A     68  64  88 NE7       30.18R
SHENANDOAH *     N/A     68  66  94 NE5       30.18R
$$

IAZ047>049-059>061-072>074-084-311500-
   CENTRAL IOWA

CITY           SKY/WX    TMP DP  RH WIND       PRES   REMARKS
AMES             N/A     68  61  78 N5        30.17S
ANKENY *         N/A    N/A N/A N/A MISG        N/A
BOONE *          N/A     66  61  82 NE6       30.17S
CHARITON *       N/A    N/A N/A N/A MISG        N/A
DES MOINES     PTSUNNY   71  60  68 NE8       30.16R
GRINNELL*        N/A     65  58  80 N7        30.16S
KNOXVILLE *      N/A     68  59  73 N8        30.14S
MARSHALLTOWN     N/A     66  62  87 NE6       30.15F
NEWTON *         N/A     66  61  82 N12       30.15S
PERRY *          N/A     65  62  89 N3        30.18S
$$

IAZ004>006-015-016-023>025-035-036-311500-
   NORTH CENTRAL IOWA

CITY           SKY/WX    TMP DP  RH WIND       PRES   REMARKS
ALGONA *         N/A     63  59  88 N5        30.21S
ESTHERVILLE      N/A     62  60  93 N6        30.22S
FORT DODGE *     N/A     63  57  82 N3        30.21R
MASON CITY       N/A     64  58  80 N6        30.21S
FOREST CITY *    N/A     63  59  88 N7        30.20S
WEBSTER CITY *   N/A     64  61  88 N8        30.17S
IOWA FALLS *     N/A     65  60  81 N3        30.19S
$$

IAZ007>011-017>019-026>030-037>042-050>054-066-311500-
   NORTHEAST IOWA

CITY           SKY/WX    TMP DP  RH WIND       PRES   REMARKS
CEDAR RAPIDS     N/A     67  62  84 N7        30.13S
CHARLES CITY *   N/A     63  61  94 N5        30.18F
CLINTON *        N/A     69  65  86 NE10      30.11S
DECORAH *        N/A     64  61  88 N5        30.17R
DUBUQUE          N/A     65  60  84 NE12      30.14S
MONTICELLO *     N/A     66  61  82 N5        30.13S
OELWEIN *        N/A     64  59  82 NE8       30.17S
WATERLOO         N/A     67  59  75 N5        30.15F
$$

IAZ064-065-067-068-078-311500-
   EAST CENTRAL IOWA

CITY           SKY/WX    TMP DP  RH WIND       PRES   REMARKS
DAVENPORT        N/A     68  64  87 N9        30.11S
IOWA CITY        N/A     70  61  73 N7        30.13F
MT. PLEASANT *   N/A     70  69  96 N8        30.11S
QUAD CITIES      N/A     71  64  78 NE8       30.10S
$$

IAZ062-063-075>077-085>089-095>099-311500-
   SOUTHEAST IOWA

CITY           SKY/WX    TMP DP  RH WIND       PRES   REMARKS
BURLINGTON       N/A     71  68  90 N10       30.10R
FAIRFIELD *      N/A     68  63  83 N8        30.12S
FORT MADISON *   N/A     70  66  88 N5        30.11S
KEOKUK *         N/A     72  70  94 N9        30.09S
OSKALOOSA *      N/A     65  63  91 N8        30.14S
OTTUMWA          N/A     66  62  87 N8        30.13S
WASHINGTON *     N/A     68  64  88 N9        30.13S
$$

ABBREVIATIONS USED IN REMARKS
   TC - TEMPERATURES IN CELSIUS
  WCI - WIND CHILL INDEX
   HX - HEAT INDEX
  VSB - VISIBILITY
$$





USA.gov is the U.S. government's official web portal to all federal, state and local government web resources and services.